www.pogodaiklimat.ru

Погода и климат >> Архив погоды >> Россия >> Оренбургская область >> Новосергиевка


ПОГОДА в Новосергиевке

  • Прогноз погоды в Новосергиевке
  • Монитор погоды в Новосергиевке

АРХИВ ПОГОДЫ в Новосергиевке

Время (UTC), дата Ветер
(напр.,м/с)
 
Видим.   Явления Облачность Т
(С)
Тd
(С)
f
(%)
Тe
(С)
Тes
(С)
Комфортность P
(гПа)
Po
(гПа)
Тmin
(С)
Tmax
(С)
R
(мм)
R24
(мм)
S
(см)
03 17.03 В 4 20 км 10/8 600 м
[Sc Ac und]
-2.0 -4.3 84 -8 -8 1020.7 1002.7 -2.8 51
06 17.03 ЮВ 6-10
{13}
20 км 10/0
[Ac As]
-1.1 -5.6 71 -8 -7 1021.2 1003.2
09 17.03 В 4
{13}
20 км 10/0 2000 м
[Ac As]
+0.1 -5.9 64 -5 -3 1021.1 1003.2
12 17.03 В 3 20 км 10/0 2000 м
[Ac As]
-0.2 -5.7 66 -5 -4 1021.4 1003.5
15 17.03 В 3 20 км 10/0 2000 м
[Ac As]
-1.1 -6.2 68 -6 -6 1021.9 1003.9 +0.4
18 17.03 В 3 10 км 10/8 600 м
[Sc Ac und]
-0.8 -6.4 66 -5 -5 1022.0 1004.0
21 17.03 СВ 3 10 км 10/8 600 м
[Sc Ac und]
-1.5 -5.1 76 -6 -6 1022.2 1004.2
00 18.03 В 5
{11}
10 км 10/8 600 м
[Sc Ac und]
-0.9 -5.6 70 -7 -7 1022.2 1004.2
03 18.03 В 3
{10}
20 км {метель} 10/4 600 м
[Sc Ac und]
-1.3 -7.1 65 -6 -6 1022.6 1004.6 -1.5 48
06 18.03 В 4 10 км слаб. снег {метель} 10/0 2000 м
[As op]
-0.3 -7.2 60 -5 -5 1024.1 1006.1 -1.7
09 18.03 СВ 4
{11}
20 км {снег} 10/0 2000 м
[Ac As]
+1.4 -6.5 56 -3 -1 1023.3 1005.5
12 18.03 В 3-10
{13}
20 км {снег} 10/0 2000 м
[Ac As]
-0.0 -2.6 83 -5 -4 1024.3 1006.4
15 18.03 СВ 4
{10}
10 км слаб. снег 10/0 2000 м
[As op]
-0.8 -2.0 92 -7 -7 1025.3 1007.3 +1.5 1
18 18.03 СВ 3 10 км слаб. снег 10/0 2000 м
[As op]
-1.2 -2.0 94 -6 -6 1026.1 1008.1
21 18.03 В 4 10 км {снег} 10/0 2000 м
[Ac As]
-1.1 -2.6 90 -7 -7 1026.2 1008.2
00 19.03 С 1 10 км {снег} 10/5 600 м
[Sc Ac und]
-1.1 -2.8 88 -3 -3 1026.4 1008.4
03 19.03 СВ 2 20 км 10/8 600 м
[Sc Ac und]
-1.0 -2.6 89 -5 -5 1026.9 1008.9 -1.7 0.8 49
06 19.03 СВ 2 20 км 10/0 2000 м
[Ac und]
+1.6 -2.7 73 -2 0 1027.6 1009.7
09 19.03 СВ 2 20 км 8/8 600 м
[Sc]
+3.3 -3.1 63 +1 +2 1027.3 1009.5
12 19.03 СВ 3 20 км ясно +2.3 -3.6 65 -1 +1 1027.2 1009.4
15 19.03 СВ 1 20 км 6/0 2000 м
[Ac trans]
-0.6 -3.7 80 -3 -3 1028.2 1010.2 +3.3
18 19.03 С 1 10 км 3/0 2000 м
[Ac trans]
-1.4 -3.8 84 -4 -4 1028.3 1010.2
21 19.03 СЗ 1 10 км 8/0 2000 м
[Ac trans]
-3.0 -4.7 88 -5 -5 1028.2 1010.0
00 20.03 СЗ 1 10 км 10/4 600 м
[Sc Ac und]
-2.9 -4.5 89 -5 -5 1027.8 1009.6
03 20.03 С 1 20 км 9/3 600 м
[Sc Ac trans]
-4.0 -5.4 90 -6 -6 1027.6 1009.4 -4.0 45
06 20.03 СЗ 1 20 км 10/6 600 м
[Sc Ac und]
-1.1 -3.7 82 -3 -2 1027.5 1009.4
09 20.03 СЗ 1 20 км 10/5 600 м
[Sc Ac und]
+2.4 -2.5 70 +1 +3 1026.6 1008.8
12 20.03 СЗ 2 20 км ясно +3.9 -2.3 64 +1 +5 1025.6 1007.9
15 20.03 СВ 1 20 км ясно +0.4 -3.6 74 -1 -1 1025.4 1007.5 +4.5
18 20.03 штиль 0 10 км 3/0 2000 м
[Ac trans]
-2.4 -4.2 87 -4 -4 1025.3 1007.2
21 20.03 штиль 0 10 км 4/0 2000 м
[Ac trans]
-5.0 -6.2 91 -6 -6 1024.6 1006.3
00 21.03 штиль 0 10 км 3/0 2000 м
[Ac trans]
-7.3 -8.6 90 -8 -8 1023.8 1005.4
03 21.03 штиль 0 20 км 8/8 600 м
[Sc]
-6.7 -7.9 91 -8 -7 1023.1 1004.7 -7.5 43
06 21.03 СВ 1 20 км 9/6 600 м
[Sc Ac trans]
-0.8 -4.7 75 -3 -1 1022.5 1004.5
09 21.03 СВ 1 20 км 8/6 600 м
[Sc Ac trans]
+4.2 -5.2 50 +3 +6 1021.3 1003.7
12 21.03 штиль 0 20 км 9/9 800 м
[Sc]
+4.7 -4.0 53 +4 +5 1020.4 1002.9
15 21.03 штиль 0 20 км 8/0 2000 м
[Ac lent Ci sp]
+1.2 -3.3 72 0 0 1020.2 1002.4 +6.5
18 21.03 СЗ 1 10 км 6/3 600 м
[Sc Ac trans Ci sp]
-1.9 -3.6 88 -4 -4 1020.3 1002.3
21 21.03 С 1 10 км ясно -4.8 -6.1 91 -7 -7 1019.8 1001.6
00 22.03 штиль 0 10 км ясно -6.9 -8.1 91 -8 -8 1019.4 1001.1
03 22.03 штиль 0 20 км ясно -9.0 -10.2 91 -10 -9 1019.2 1000.8 -9.3 40
06 22.03 штиль 0 20 км 3/0 2000 м
[Ac trans]
+0.5 -5.1 66 -0 +6 1018.7 1000.9
09 22.03 Ю 2 20 км 1/0 2000 м
[Ac trans]
+3.9 -4.7 53 +2 +10 опасность
простуды
1017.5 999.9
12 22.03 Ю 2 20 км 10/4 1000 м
[Sc Ac As]
+3.1 -5.5 53 +1 +1 1016.7 999.1
15 22.03 СВ 1 20 км 10/0 2000 м
[Ac trans Cs]
+0.5 -4.7 68 -1 -1 1015.9 998.2 +4.1
18 22.03 ЮВ 2 10 км 6/0
[Ci sp]
-0.4 -4.1 76 -4 -4 1015.0 997.2
21 22.03 штиль 0 10 км 10/5 600 м
[Sc Ac und]
+0.2 -3.8 74 -1 -1 1014.2 996.5
00 23.03 Ю 2 10 км 10/8 600 м
[Sc Ac und]
+1.2 -2.8 75 -2 -2 1013.5 995.9
03 23.03 Ю 2 10 км крупа {ливн. осадки} 10/4 600 м
[Cb cap As op]
+0.1 -1.0 92 -4 -4 1014.5 996.8 -1.7 1 40
06 23.03 З 2 10 км дымка {ливн. осадки} 10/10 240 м
[St]
+0.5 -0.8 91 -3 -3 1016.5 998.8
09 23.03 З 2 20 км 10/0 360 м
[As op]
+0.6 -1.2 88 -3 -1 1018.4 1000.7
12 23.03 З 1 20 км 10/0 420 м
[As op]
+0.6 -1.5 86 -1 -1 1019.9 1002.1
15 23.03 ЮВ 1 20 км 10/0 420 м
[As op]
-0.0 -1.8 88 -2 -2 1020.9 1003.0 +1.2
18 23.03 В 1 10 км 8/8 600 м
[Sc]
-1.6 -2.9 91 -4 -4 1021.6 1003.6
21 23.03 В 2 10 км 10/8 600 м
[Sc Ac und]
-1.8 -3.0 91 -6 -6 1022.5 1004.5

 

Местоположение метеостанции Новосергиевка (Оренбургская область, Россия): широта 52.08 долгота 53.63 высота над уровнем моря 139 м.

В архиве по умолчанию представлена погода в Новосергиевке за последнюю неделю. Архивные данные за месяц целиком и за предыдущие месяцы, начиная с января 2011 года, Вы можете получить, выбрав интересующий диапазон дат из раскрывающегося списка и нажав кнопку "Ввод!".


*Определитесь, кто Вы:
робот инопланетянин человек

Внимание! Время в таблицах - всемирное. Для получения местного времени необходимо прибавить поправку, которая равна 5 ч.

Смотрите также архив погоды в соседних городах и на ближайших метеорологических станциях:

Погода в Сорочинске (Оренбургская область, Россия) (52 км)
Погода в Илеке (Оренбургская область, Россия) (65 км)
Погода в Татарской Каргале (Оренбургская область, Россия) (107 км)
Погода в Аксае (Западно-Казахстанская область, Казахстан) (109 км)
Погода в Оренбурге (Оренбургская область, Россия) (110 км)
Погода в Чингирлау (Западно-Казахстанская область, Казахстан) (116 км)
Погода в Шарлыке (Оренбургская область, Россия) (121 км)
Погода в Бузулуке (Оренбургская область, Россия) (126 км)
Погода в Первомайском (Оренбургская область, Россия) (137 км)
Погода в Соль-Илецк (Оренбургская область, Россия) (141 км)

Пояснения к столбцам:

Ветер - указаны скорость ветра в м/с - средняя за 10 мин, порывы в срок и между сроками (в фигурных скобках) и направление, откуда дует ветер: С - северный, СВ - северо-восточный, В - восточный, ЮВ - юго-восточный, Ю - южный, ЮЗ - юго-западный, З - западный, СЗ - северо-западный.
Видимость - горизонтальная дальность видимости в метрах или километрах. При видимости от 1 до 10 км при отсутствии осадков обычно наблюдается дымка, при ухудшении видимости до 1 км и менее - туман. В сухую погоду видимость может ухудшаться дымом, пылью или мглою.
Явления - указаны атмосферные явления, наблюдавшиеся в срок или в последний час перед сроком; фигурными скобками обозначены явления, наблюдавшиеся между сроками (за 1-3 часа до срока); квадратными скобками обозначены град или гололедные отложения с указанием их диаметра в мм.
Облачность - указаны через наклонную черту общая и нижняя облачность в баллах и высота нижней границы облаков в метрах; квадратными скобками обозначены формы облаков: Ci - перистые, Cs - перисто-слоистые, Cc - перисто-кучевые, Ac - высококучевые, As - высокослоистые, Sc - слоисто-кучевые, Ns - слоисто-дождевые, Cu - кучевые, Cb - кучево-дождевые. Подробнее классификацию облаков см. в Атласе облаков (PDF).
T - Температура воздуха - температура, измеренная на высоте 2 м над землей.
Td - Температура точки росы - температура, при понижении до которой содержащийся в воздухе водяной пар достигнет насыщения.
f - Относительная влажность воздуха - влажноcть воздуха, измеренная на высоте 2 м над землей.
Te - Эффективная температура - температура, которую ощущает одетый по сезону человек в тени. Характеристика душности погоды. При расчете учитывается влияние влажности воздуха и скорости ветра на теплоощущения человека.
Tes - Эффективная температура на солнце - температура, которую ощущает человек, с поправкой на солнечный нагрев. Характеристика знойности погоды. Зависит от высоты солнца над горизонтом, облачности и скорости ветра. Ночью, в пасмурную погоду, а также при ветре 12 м/с и более поправка равна нулю.
P - Атмосферное давление - приведенное к уровню моря атмосферное давление.
Po - Атмосферное давление - измеренное на уровне метеостанции атмосферное давление.
Tmin - Минимальная температура - минимум температуры воздуха на высоте 2 м над землей.
Tmax - Максимальная температура - максимум температуры воздуха на высоте 2 м над землей.
R - Количество осадков - Количество выпавших осадков за период времени, мм. При наведении курсора мыши на число - период времени, за который выпало указанное количество осадков.
R24 - Количество осадков - Количество выпавших осадков за 24 часа, мм.
S - Снежный покров - Высота снежного покрова, см. При наведении курсора мыши на число - состояние снежного покрова и степень покрытия местности в баллах.